Regional Weather Roundup
Issued by NWS

Home | Current Version | Previous Version | Graphics & Text | Print | Product List | Glossary On
Versions: 1 2 3 4 5 6 7 8 9 10 11 12 13 14 15 16 17 18 19 20 21 22 23 24 25 26 27 28 29 30 31 32 33 34 35 36 37 38 39 40 41 42 43 44 45 46 47 48 49 50
000
ASUS45 KABQ 260910
RWRNM
NEW MEXICO REGIONAL WEATHER ROUNDUP
NATIONAL WEATHER SERVICE ALBUQUERQUE NM
300 AM MDT THU MAY 26 2016

NOTE: "FAIR" MEANS FEW OR NO CLOUDS BELOW 12,000 FEET AGL WITH NO
       SIGNIFICANT WEATHER OR OBSTRUCTIONS TO VISION.

      THIS PRODUCT IS RELEASED AS TWO VERSIONS.  ONE VERSION NEAR
      THE TOP OF THE HOUR CONTAINING PRELIMINARY DATA FROM ALBUQUERQUE
      AND OTHER STATIONS.  A FINAL VERSION WITH ADDITIONAL DATA IS
      ISSUED ABOUT 10 MINUTES AFTER THE HOUR.

NMZ501-503-504-510>518-261000-
NORTHWEST PLATEAU/NORTHCENTRAL MOUNTAINS

CITY           SKY/WX    TMP DP  RH WIND       PRES   REMARKS
FARMINGTON     FAIR      48  15  26 N5        29.97S
LOS ALAMOS     FAIR      55  22  27 CALM      30.06F
SANTA FE       FAIR      51  21  30 NE5       30.00F
TAOS           MOCLDY    45  19  36 N8        30.06F
ANGEL FIRE     FAIR      28  23  80 W6        30.13F WCI  22

$$
NMZ402-403-502-505>509-261000-
WESTCENTRAL MOUNTAINS/SOUTHWEST MOUNTAINS

CITY           SKY/WX    TMP DP  RH WIND       PRES   REMARKS
GALLUP         MOCLDY    47  19  33 CALM      30.06S
GRANTS         FAIR      35  17  46 NW5       30.07F WCI  31
SILVER CITY      N/A     46  16  29 NW9       30.05F

$$
NMZ407-409-411-412-261000-
SOUTHERN DESERTS

CITY           SKY/WX    TMP DP  RH WIND       PRES   REMARKS
LORDSBURG      FAIR      59  18  20 CALM      30.00F
DEMING         FAIR      64  20  18 W13       29.99F
LAS CRUCES     FAIR      64  15  14 W13       29.99F
HOLLOMAN AFB   FAIR      65  15  14 SE6       29.96S
ALAMOGORDO     FAIR      66  14  13 S3        29.98F
T OR C         FAIR      63  16  16 SW7       29.98S

$$
NMZ519>523-261000-
CENTRAL VALLEYS/CENTRAL HIGHLANDS

CITY           SKY/WX    TMP DP  RH WIND       PRES   REMARKS
ALBUQUERQUE    FAIR      55  14  19 E3        29.98S
DOUBLE EAGLE   FAIR      52  18  26 NW10      30.02S
MORIARTY ARPT  FAIR      36  17  45 CALM      30.02F
CLINES CORNERS FAIR      46  15  28 W12       30.03F
BELEN          FAIR      56  13  18 CALM      29.99S
SOCORRO        FAIR      56  19  23 S8        29.98S

$$
NMZ524>526-539-540-261000-
SOUTHCENTRAL MOUNTAINS

CITY           SKY/WX    TMP DP  RH WIND       PRES   REMARKS
RUIDOSO          N/A     57  12  17 SW16G22   30.10F

$$
NMZ527>531-261000-
NORTHEAST HIGHLANDS/NORTHEAST PLAINS

CITY           SKY/WX    TMP DP  RH WIND       PRES   REMARKS
LAS VEGAS      FAIR      43  20  39 NE7       30.02F
RATON          FAIR      38  23  55 E8        29.98F WCI  32
CLAYTON        FAIR      59  22  24 W9        29.89F

$$
NMZ532>537-261000-
EASTCENTRAL PLAINS

CITY           SKY/WX    TMP DP  RH WIND       PRES   REMARKS
TUCUMCARI      FAIR      56  26  31 S12       29.87S
CANNON AFB     FAIR      59  33  37 W6        29.92S
CLOVIS AIRPORT FAIR      57  37  47 SW6       29.92R

$$
NMZ028-029-538-261000-
SOUTHEAST PLAINS

CITY           SKY/WX    TMP DP  RH WIND       PRES   REMARKS
ROSWELL        FAIR      64  19  17 W8        29.90F
ARTESIA        FAIR      63  21  20 SW14      29.90F
CARLSBAD       FAIR      64  55  72 W9        29.89S
HOBBS          FAIR      68  68 100 SE10      29.92F


$$




USA.gov is the U.S. government's official web portal to all federal, state and local government web resources and services.